Location: Chavannes
(47.1090°N, 0.2226°W)
Time: 14:48:30
(UTC+00:00)

Cosmos 1455 Rocket - Pass Details

Date: 16 October 2021
Orbit: 604 x 630 km, 82.5° (Epoch: 06 December)

Event Time Altitude Azimuth Distance (km) Brightness Sun altitude
Rises 18:07:34 0° 164° (SSE) 2,878 6.3 -10.3°
Reaches altitude 10° 18:09:55 10° 155° (SSE) 1,982 5.4 -10.7°
Maximum altitude 18:13:52 34° 91° (E) 1,042 3.7 -11.4°
Drops below altitude 10° 18:17:52 10° 27° (NNE) 2,011 5.4 -12.1°
Sets 18:20:16 0° 18° (NNE) 2,926 6.3 -12.5°
